STARLINK-31914 (59902 NORAD) Tracking and Keplerian Element Data

This shows tracking and keplerian element data for the satellite.

Feedback or suggestion? Click here.




ElementValue
Catalog59902
NameSTARLINK-31914
Epoch Orbit277
Epoch Day159.91667824
Epoch Year2024
RAAN175.8371
Inclination43.003
Eccentricity0.0001842
Argument of Perigee259.5343
Mean Anonmoly9.0927
Mean Motion15.80485652
Decay Rate-0.01061197
L11 59902U 24100T 24159.91667824 -.01061197 00000+0 -60008-2 0 9998
L22 59902 43.0030 175.8371 0001842 259.5343 9.0927 15.80485652 2772



Live tracking and technical data element details for STARLINK-31914 (NORAD 59902). STARLINK-31914 can be tracked NOW for your location showing map with azimuth and elevation plus other details from your city location.







IsCatalogInMostPopularTable: catalog: 59902, numindb: 6
Update: records affected: 1



GetName: 59902 STARLINK-31914

Hit Count: updated at: Tue, 16 Jul 2024 01:57:32 GMT